sat.trackr.live / text

‹ back to catalog

STARLINK-1972

NORAD 47627 · 2021-012H

PAYLOAD ACTIVE UNKNOWN

§ Identity

Operator
Country
US
Launch date
2021-02-16
Launch site
AFETR
Launch vehicle
Mass (kg)
RCS (m²)

Purposes: comms

External: N2YO · Heavens-Above · Gunter

§ Orbital elements

Epoch: 2026-09-13T04:00:01.998720Z

Period
90.70 min
Inclination
53.0375°
Eccentricity
0.0004334
Mean motion
15.87635188 rev/d
Perigee alt
306.0 km
Apogee alt
311.8 km
Semi-major
6,687.1 km
B*
7.9279e-4
RAAN
124.1166°
Arg perigee
135.3351°
Mean anomaly
137.4662°
Rev number
594

§ Raw data

STARLINK-19721 47627U 21012H   26256.16668980  .00220943  00000+0  79279-3 0  99932 47627  53.0375 124.1166 0004334 135.3351 137.4662 15.87635188  5946

JSON: /api/v1/satellites/47627 · /tle

For live sub-satellite position, see the globe view (requires WebGL).

§ Visibility from observer

Set your observer location to see the next 7 days of passes ≥ 10°. The values pass through the URL so the page stays shareable.

No JS? Fill the form by hand. The geolocation button needs JavaScript.